This is the latest recevied weather packets stored in our database for station/object IN3XSV-15. If no packets are shown the sender has not sent any weather packets the latest 10 day(s).
| Time | Temp. | Humidity | Pressure | Rain* | Wind** | Luminosity | Snow |
|---|---|---|---|---|---|---|---|
| 1777587608 | -0.56° C | 80% | 863 hPa | 0 mm | - | - | - |
| 1777587308 | -0.56° C | 80% | 862.9 hPa | 0 mm | - | - | - |
| 1777587008 | -0.56° C | 80% | 862.9 hPa | 0 mm | - | - | - |
| 1777586708 | -0.56° C | 80% | 863.1 hPa | 0 mm | - | - | - |
| 1777586408 | 0° C | 80% | 863 hPa | 0 mm | - | - | - |
| 1777586108 | 0° C | 80% | 863 hPa | 0 mm | - | - | - |
| 1777585808 | 0.56° C | 80% | 863 hPa | 0 mm | - | - | - |
| 1777585509 | 1.11° C | 80% | 862.9 hPa | 0 mm | - | - | - |
| 1777585208 | 1.11° C | 80% | 863 hPa | 0 mm | - | - | - |
| 1777584908 | 1.67° C | 80% | 862.9 hPa | 0 mm | - | - | - |
| 1777584609 | 2.22° C | 80% | 862.9 hPa | 0 mm | - | - | - |
| 1777584309 | 2.22° C | 80% | 862.9 hPa | 0 mm | - | - | - |
| 1777584009 | 2.22° C | 79% | 862.8 hPa | 0 mm | - | - | - |
| 1777583709 | 2.22° C | 78% | 862.8 hPa | 0 mm | - | - | - |
| 1777583409 | 2.22° C | 78% | 862.7 hPa | 0 mm | - | - | - |
| 1777583109 | 2.22° C | 78% | 862.8 hPa | 0 mm | - | - | - |
| 1777582809 | 2.22° C | 77% | 862.8 hPa | 0 mm | - | - | - |
| 1777582509 | 2.22° C | 76% | 862.8 hPa | 0 mm | - | - | - |
| 1777582209 | 2.78° C | 75% | 862.8 hPa | 0 mm | - | - | - |
| 1777581909 | 2.78° C | 76% | 862.7 hPa | 0 mm | - | - | - |
| 1777581609 | 2.22° C | 76% | 862.6 hPa | 0 mm | - | - | - |
| 1777581309 | 2.22° C | 78% | 862.6 hPa | 0 mm | - | - | - |
| 1777581009 | 2.22° C | 80% | 862.6 hPa | 0 mm | - | - | - |
| 1777580709 | 2.22° C | 80% | 862.6 hPa | 0 mm | - | - | - |
| 1777580409 | 2.22° C | 80% | 862.6 hPa | 0 mm | - | - | - |
* Rain latest hour (hover to see other rain measurements)
** Current wind speed in m/s (hover to see current wind gust speed)